This demonstration page uses our WeatherBlox Daily Observations layout. Learn more.

Left ArrowRight Arrow

39.08367, -84.50855

Hourly Observations for April 27, 2015

Temp ( °F °C ) Dew Point ( °F °C ) Humidity (%) Winds ( mph kmh ) Pressure ( in mb ) Visibility ( mi km ) Precip ( " mm )
12:53 am 00:53 Clear 41 5 38 3.3 89 89 N N/A 29.93 1014 10 16 N/A
1:53 am 01:53 Clear 39 3.9 38 3.3 96 96 N N/A 29.94 1014 10 16 N/A
2:53 am 02:53 Clear 37 2.8 37 2.8 100 100 N N/A 29.93 1014 10 16 N/A
3:53 am 03:53 Clear with Mist and Fog 37 2.8 36 2.2 96 96 SSE 3 6 29.93 1014 6 10 N/A
4:53 am 04:53 Clear 37 2.8 36 2.2 96 96 N N/A 29.93 1014 10 16 N/A
5:53 am 05:53 Clear 34 1.1 34 1.1 100 100 NNE 3 6 29.94 1014 10 16 N/A
6:53 am 06:53 Sunny 35 1.7 35 1.7 100 100 N N/A 29.96 1015 7 11 N/A
7:37 am 07:37 Partly Cloudy 37 2.8 37 2.8 100 100 N N/A 29.97 1015 7 11 N/A
7:53 am 07:53 Mostly Cloudy with Mist and Fog 37 2.8 37 2.8 100 100 SSW 5 7 29.98 1015 2 3 N/A
8:00 am 08:00 Mostly Cloudy with Fog 37 3 37 3 100 100 SSW 5 7 29.97 1015 5 8 N/A
8:13 am 08:13 Mostly Cloudy with Mist and Fog 40 4.4 40 4.4 100 100 SSW 3 6 30.00 1016 1 2 N/A
8:16 am 08:16 Partly Cloudy with Mist and Fog 39 4 39 4 100 100 SSW 3 6 30.00 1016 4 6 N/A
8:53 am 08:53 Sunny 44 6.7 43 6.1 96 96 S 3 6 29.99 1016 10 16 N/A
9:53 am 09:53 Sunny 50 10 40 4.4 68 68 N N/A 29.99 1016 10 16 N/A
10:53 am 10:53 Sunny 55 12.8 39 3.9 55 55 WSW 6 9 29.98 1015 10 16 N/A
11:53 am 11:53 Sunny 59 15 37 2.8 44 44 N 12 19 29.98 1015 10 16 N/A
12:53 pm 12:53 Sunny 60 15.6 39 3.9 46 46 NNW 13 20 29.99 1016 10 16 N/A
1:53 pm 13:53 Sunny 61 16.1 39 3.9 44 44 VRB 7 11 29.97 1015 10 16 N/A
2:53 pm 14:53 Mostly Sunny 61 16.1 37 2.8 41 41 N 12 19 29.96 1015 10 16 N/A
3:53 pm 15:53 Cloudy 61 16.1 37 2.8 41 41 NW 8 13 29.96 1015 10 16 N/A
4:53 pm 16:53 Cloudy 60 15.6 40 4.4 47 47 NNE 13 20 29.97 1015 10 16 N/A
5:53 pm 17:53 Cloudy 58 14.4 39 3.9 50 50 N 15 24 29.99 1016 10 16 N/A
6:53 pm 18:53 Cloudy 57 13.9 38 3.3 49 49 N 12 19 30.00 1016 10 16 N/A
7:53 pm 19:53 Cloudy 55 12.8 38 3.3 53 53 N 10 17 30.02 1017 10 16 N/A
8:53 pm 20:53 Cloudy 53 11.7 37 2.8 55 55 N 13 20 30.04 1017 10 16 N/A
9:53 pm 21:53 Cloudy 51 10.6 38 3.3 61 61 NE 13 20 30.05 1018 10 16 N/A
10:53 pm 22:53 Cloudy 50 10 38 3.3 63 63 NNE 9 15 30.07 1018 10 16 N/A
11:53 pm 23:53 Cloudy 49 9.4 38 3.3 66 66 NNE 9 15 30.08 1019 10 16 N/A

Powered by AerisWeather